Weather History for KGLD - October, 2013

Change the Weather History Date:

Saturday, October 26, 2013

  Actual Average Record
Temperature  
Mean Temperature 50 °F 48 °F  
Max Temperature 62 °F 62 °F 87 °F (1922)
Min Temperature 37 °F 34 °F 10 °F (1997)
Degree Days  
Heating Degree Days 15 17  
Month to date heating degree days 359 324  
Since 1 July heating degree days 413 448  
Cooling Degree Days 0 0  
Month to date cooling degree days 0 5  
Year to date cooling degree days 1181 938  
Moisture  
Dew Point 34 °F    
Average Humidity 64    
Maximum Humidity 92    
Minimum Humidity 35    
Precipitation  
Precipitation 0.00 in 0.04 in 1.17 in (2006)
Month to date precipitation 1.21 1.20  
Year to date precipitation 16.49 18.32  
Snow  
Snow 0.00 in 0.10 in - ()
Month to date snowfall 4.0 1.7  
Since 1 July snowfall 4.0 2.1  
Since 1 September snowfall 4.0 2.1  
Snow Depth 0.00 in    
Sea Level Pressure  
Sea Level Pressure 30.22 in    
Wind  
Wind Speed 11 mph (NNW)    
Max Wind Speed 21 mph    
Max Gust Speed 26 mph    
Visibility 10 miles    
Events      
T = Trace of Precipitation, MM = Missing Value Source: NWS Daily Summary

Daily Weather History Graph

Daily Weather History Graph

Search for Another Location

Airport or City:

Trip Planner

Search our weather history database for the weather conditions in past years. The results will help you decide how hot, cold, wet, or windy it might be!

Date:

Astronomy

Oct. 26, 2013 Rise Set
Actual Time 7:08 AM MDT 5:52 PM MDT
Civil Twilight 6:40 AM MDT 6:19 PM MDT
Nautical Twilight 6:09 AM MDT 6:51 PM MDT
Astronomical Twilight 5:38 AM MDT 7:22 PM MDT
Moon No Moon Rise 1:25 PM MDT
Length of Visible Light 11h 38m
Length of Day
10h 43m
Waning Gibbous, 52% of the Moon is Illuminated
Oct 26
Waning Gibbous
Oct 26
Last Quarter
Nov 3
New
Nov 9
First Quarter
Nov 17
Full

Hourly Weather History & Observations

Time (MDT) Temp. Windchill Dew Point Humidity Pressure Visibility Wind Dir Wind Speed Gust Speed Precip Events Conditions
12:53 AM 45.0 °F 41.2 °F 39.0 °F 80% 30.09 in 10.0 mi NW 6.9 mph - N/A   Clear
1:53 AM 45.0 °F 40.1 °F 39.0 °F 80% 30.10 in 10.0 mi NNW 9.2 mph - N/A   Clear
2:53 AM 45.0 °F 38.5 °F 37.9 °F 76% 30.10 in 10.0 mi North 13.8 mph - N/A   Clear
3:53 AM 45.0 °F 37.4 °F 37.0 °F 74% 30.13 in 10.0 mi North 18.4 mph 26.5 mph N/A   Clear
4:53 AM 42.1 °F 35.7 °F 36.0 °F 79% 30.18 in 10.0 mi North 11.5 mph - N/A   Clear
5:53 AM 39.0 °F 32.8 °F 35.1 °F 86% 30.23 in 10.0 mi North 9.2 mph - N/A   Clear
6:53 AM 37.9 °F 31.5 °F 35.1 °F 89% 30.27 in 10.0 mi NNW 9.2 mph - N/A   Clear
7:53 AM 41.0 °F 34.7 °F 36.0 °F 82% 30.28 in 10.0 mi NNW 10.4 mph - N/A   Clear
8:53 AM 46.0 °F 39.6 °F 36.0 °F 68% 30.31 in 10.0 mi North 15.0 mph - N/A   Clear
9:53 AM 48.9 °F - 34.0 °F 56% 30.33 in 10.0 mi North 20.7 mph - N/A   Clear
10:53 AM 52.0 °F - 30.9 °F 45% 30.34 in 10.0 mi North 12.7 mph - N/A   Clear
11:53 AM 55.0 °F - 30.9 °F 40% 30.32 in 10.0 mi North 9.2 mph - N/A   Clear
12:53 PM 57.9 °F - 32.0 °F 37% 30.29 in 10.0 mi North 9.2 mph 17.3 mph N/A   Clear
1:53 PM 60.1 °F - 34.0 °F 38% 30.24 in 10.0 mi NNW 10.4 mph - N/A   Clear
2:53 PM 61.0 °F - 34.0 °F 36% 30.22 in 10.0 mi NNW 8.1 mph - N/A   Clear
3:53 PM 61.0 °F - 32.0 °F 34% 30.22 in 10.0 mi NNW 8.1 mph - N/A   Clear
4:53 PM 60.1 °F - 33.1 °F 36% 30.21 in 10.0 mi NW 4.6 mph - N/A   Clear
5:53 PM 55.0 °F - 32.0 °F 42% 30.22 in 10.0 mi Calm Calm - N/A   Clear
6:53 PM 46.0 °F 43.9 °F 33.1 °F 61% 30.23 in 10.0 mi SSE 4.6 mph - N/A   Clear
7:53 PM 43.0 °F 38.2 °F 32.0 °F 65% 30.23 in 10.0 mi South 8.1 mph - N/A   Clear
8:53 PM 48.0 °F - 33.1 °F 56% 30.19 in 10.0 mi SSW 9.2 mph - N/A   Clear
9:53 PM 48.9 °F - 33.1 °F 54% 30.18 in 10.0 mi SSW 13.8 mph - N/A   Clear
10:53 PM 46.9 °F - 32.0 °F 56% 30.16 in 10.0 mi SW 15.0 mph - N/A   Clear
11:53 PM 46.9 °F - 32.0 °F 56% 30.12 in 10.0 mi SW 15.0 mph - N/A   Clear